Location: Wien
(48.2082°N, 16.3738°E)
Time: 12:04:21
(UTC+01:00)

Tiros 1 - Visible Passes

Search period start: 22 February 2024 00:00
Search period end: 03 March 2024 00:00
Orbit: 625 x 658 km, 48.4° (Epoch: 21 February)

Date Brightness Start Highest point End Pass type
(mag) Time Alt. Az. Time Alt. Az. Time Alt. Az.
22 Feb 9.4 04:28:54 13° S 04:28:54 13° S 04:29:38 10° SSE visible
26 Feb 9.5 20:11:41 10° SSW 20:12:26 14° SSW 20:12:26 14° SSW visible
27 Feb 8.9 18:55:45 10° S 18:58:36 16° SE 18:58:48 16° SE visible
27 Feb 9.4 20:35:20 10° SW 20:36:23 16° SW 20:36:23 16° SW visible
28 Feb 8.1 19:18:24 10° SSW 19:22:28 29° SE 19:22:39 28° SE visible
28 Feb 9.7 20:59:23 10° WSW 21:00:14 15° WSW 21:00:14 15° WSW visible
29 Feb 9.1 18:02:46 10° SSE 18:05:13 14° SE 18:07:42 10° ESE visible
29 Feb 7.5 19:41:56 10° SW 19:46:22 47° SSE 19:46:22 47° SSE visible
29 Feb 10.0 21:23:39 10° W 21:23:57 12° W 21:23:57 12° W visible
01 Mar 8.4 18:25:08 10° SSW 18:29:03 26° SE 18:32:25 13° E visible
01 Mar 7.4 20:05:55 10° WSW 20:09:59 60° SSW 20:09:59 60° SSW visible
02 Mar 7.7 18:48:33 10° SW 18:53:02 43° SSE 18:55:56 20° E visible
02 Mar 8.1 20:30:10 10° W 20:33:31 46° WSW 20:33:31 46° WSW visible
